Home   Weather   Fürth   Past weeks

Flag for Germany Past Weather in Fürth, Bavaria, Germany — Yesterday and Last 2 Weeks

Now
72 °F

Scattered clouds.


Feels Like: 75 °F
Forecast: 61 / 74 °F
Wind: 8 mph from Southwest

Location: Nuernberg

Current Time: Jul 22, 2017 at 11:00:45 am

Latest Report: Jul 22, 2017 at 10:20 am


Visibility: N/A

Pressure: 29.98 "Hg

Humidity: 69%

Dew Point: 61 °F

Location of FürthLocation

Past Weather in Fürth — Graph

°F

Fürth Temperature Yesterday

Maximum temperature yesterday: 82 °F (at 5:20 pm)
Minimum temperature yesterday: 61 °F (at 2:20 am)
Average temperature yesterday: 72 °F

High & Low Weather Summary for the Past Weeks

 TemperatureHumidityPressure
High90 °F (Jul 19, 3:50 pm)100% (Jul 11, 6:50 am)30.30 "Hg (Jul 11, 6:50 am)
Low48 °F (Jul 16, 5:20 am)29% (Jul 19, 4:20 pm)29.80 "Hg (Jul 10, 1:20 pm)
Average69 °F69%30.02 "Hg
* Reported Jul 7 9:26 am — Jul 22 9:50 am, Fürth. Weather by CustomWeather, © 2017

Note: Actual official high and low records may vary slightly from our data, if they occured in-between our weather recording intervals... More about our weather records

Advertising

Fürth Weather History for the Previous 24 Hours

Scroll right to see more
 ConditionsComfort  
Time TempWeatherWind HumidityBarometerVisibility
9:50 am
Sat, Jul 22
70 °FScattered clouds.3 mph73%29.98 "HgN/A
9:20 am68 °FBroken clouds.6 mph78%29.98 "HgN/A
8:50 am68 °FBroken clouds.7 mph78%29.98 "HgN/A
8:20 am66 °FPassing clouds.3 mph83%29.95 "HgN/A
7:50 am66 °FPassing clouds.3 mph83%29.95 "HgN/A
7:20 am64 °FPassing clouds.6 mph88%29.95 "HgN/A
6:50 am64 °FSunny.6 mph83%29.95 "Hg10 mi
6:20 am64 °FBroken clouds.3 mph83%29.95 "HgN/A
5:20 am66 °FLight rain. Partly cloudy.2 mph78%29.92 "HgN/A
4:50 am66 °FPartly cloudy.5 mph78%29.92 "HgN/A
4:20 am66 °FPassing clouds.5 mph78%29.92 "HgN/A
3:50 am68 °FPassing clouds.5 mph73%29.92 "HgN/A
3:20 am68 °FPassing clouds.5 mph78%29.92 "HgN/A
2:50 am68 °FPassing clouds.7 mph78%29.89 "HgN/A
2:20 am70 °FPassing clouds.12 mph73%29.89 "HgN/A
1:50 am72 °FPassing clouds.12 mph69%29.89 "HgN/A
1:20 am70 °FPassing clouds.5 mph73%29.89 "HgN/A
12:50 am70 °FClear.7 mph69%29.86 "Hg10 mi
12:20 am72 °FClear.7 mph65%29.86 "Hg10 mi
11:50 pm
Fri, Jul 21
72 °FClear.8 mph65%29.86 "Hg10 mi
11:20 pm73 °FClear.6 mph61%29.86 "Hg10 mi
10:50 pm73 °FClear.6 mph61%29.86 "Hg10 mi
10:20 pm73 °FClear.7 mph61%29.86 "Hg10 mi
9:50 pm75 °FClear.3 mph57%29.89 "Hg10 mi
9:20 pm75 °FClear.3 mph61%29.89 "Hg10 mi
8:50 pm77 °FPassing clouds.5 mph57%29.86 "HgN/A
8:20 pm79 °FPassing clouds.3 mph51%29.89 "HgN/A
7:50 pm81 °FPassing clouds.3 mph48%29.86 "HgN/A
7:20 pm81 °FPassing clouds.6 mph51%29.89 "HgN/A
6:50 pm82 °FPassing clouds.6 mph45%29.86 "HgN/A
6:20 pm82 °FPassing clouds.7 mph45%29.89 "HgN/A
5:50 pm82 °FPassing clouds.5 mph45%29.89 "HgN/A
5:20 pm82 °FPassing clouds.6 mph42%29.89 "HgN/A
4:50 pm81 °FPassing clouds.6 mph48%29.92 "HgN/A
4:20 pm81 °FSunny.6 mph48%29.92 "Hg10 mi
3:50 pm79 °FSunny.5 mph51%29.92 "Hg10 mi
2:50 pm79 °FPassing clouds.5 mph48%29.95 "HgN/A
2:20 pm81 °FSunny.3 mph48%29.95 "Hg10 mi
1:50 pm81 °FSunny.2 mph45%29.95 "Hg10 mi
1:20 pm79 °FPassing clouds.6 mph48%29.98 "HgN/A
12:50 pm79 °FSunny.2 mph48%29.98 "Hg10 mi
12:20 pm77 °FSunny.3 mph51%29.98 "Hg10 mi
11:50 am77 °FPassing clouds.6 mph54%29.98 "HgN/A
11:20 am75 °FPassing clouds.6 mph57%30.01 "HgN/A
Weather by CustomWeather, © 2017

See weather overviewHow to use our weather pages